Location: Phoenix
(33.4480°N, 112.0730°W)
Time: 20:18:55
(UTC-07:00)

Cosmos 1470 Rocket - Visible Passes

Search period start: 30 March 2015 00:00
Search period end: 09 April 2015 00:00
Orbit: 604 x 636 km, 82.5° (Epoch: 30 March)

Date Brightness Start Highest point End Pass type
(mag) Time Alt. Az. Time Alt. Az. Time Alt. Az.
30 Mar 5.6 20:42:21 10° NNW 20:46:02 27° W 20:49:39 10° SSW visible
31 Mar 4.1 19:21:55 10° NNE 19:25:54 36° E 19:29:55 10° SSE visible
31 Mar 6.5 21:01:15 10° WNW 21:03:31 14° W 21:05:33 10° WSW visible
01 Apr 3.4 19:39:15 10° N 19:43:34 76° E 19:47:54 10° S visible
02 Apr 4.4 19:56:57 10° NNW 20:01:09 50° W 20:05:20 10° SSW visible
03 Apr 5.9 20:15:04 10° NW 20:18:39 25° W 20:22:09 10° SW visible
04 Apr 6.7 20:34:10 10° WNW 20:36:07 12° W 20:37:50 10° WSW visible
05 Apr 3.5 19:11:51 10° N 19:16:12 84° E 19:20:32 10° S visible
06 Apr 4.8 19:29:35 10° NNW 19:33:45 46° W 19:37:54 10° SSW visible
07 Apr 6.2 19:47:47 10° NW 19:51:15 23° W 19:54:37 10° SW visible
08 Apr 7.0 20:07:10 10° WNW 20:08:43 11° W 20:10:00 10° WSW visible
